Flag for Indonesia Weather past 2 weeks in Medan, North Sumatra, Indonesia

Now
86 °F

Partly sunny.


Feels Like: 102 °F
Forecast: 76 / 90 °F
Wind: 7 mph from North

Location: Medan / Polonia

Current Time: Apr 19, 2015 at 5:16:59 PM

Latest Report: Apr 19, 2015 at 4:30 PM


Visibility: 4 mi

Pressure: 29.74 "Hg

Humidity: 84%

Dew point: 81 °F

Location of MedanLocation

Historic Weather in Medan — Graph

°F

Medan temperature yesterday

Maximum temperature yesterday: 91 °F (at 11:30 AM)
Minimum temperature yesterday: 75 °F (at 11:30 PM)
Average temperature yesterday: 82 °F

Past Weeks' High & Low Weather Summary

 TemperatureHumidityPressure
High93 °F (Apr 7, 12:00 PM)100% (Apr 5, 12:30 AM)29.95 "Hg (Apr 5, 12:30 AM)
Low75 °F (Apr 5, 1:00 PM)53% (Apr 16, 12:00 PM)29.65 "Hg (Apr 4, 4:00 PM)
Average82 °F86%29.80 "Hg
* Reported Apr 4 4:00 PM — Apr 19 4:00 PM, Medan, Weather by CustomWeather, © 2015

Note: Actual official high and low records may vary slightly from our data, if they occured in-between our weather recording intervals... More about our weather records

Advertising

Medan weather history for previous 24 hours

 ConditionsComfort  
Time TempWeatherWind HumidityBarometerVisibility
4:00 PM
Sun, Apr 19
90 °FPartly sunny.8 mph75%29.74 "Hg4 mi
3:30 PMN/APassing clouds.N/AN/AN/AN/A
3:00 PM90 °FScattered clouds.10 mph75%29.74 "Hg5 mi
2:30 PM91 °FScattered clouds.9 mph67%29.77 "Hg5 mi
2:00 PM90 °FScattered clouds.12 mph75%29.80 "Hg4 mi
1:30 PM90 °FScattered clouds.9 mph75%29.80 "Hg4 mi
1:00 PM90 °FScattered clouds.7 mph71%29.80 "Hg4 mi
12:30 PM88 °FScattered clouds.8 mph79%29.83 "Hg4 mi
12:00 PM88 °FScattered clouds.7 mph75%29.83 "Hg4 mi
11:30 AM88 °FScattered clouds.6 mph75%29.86 "Hg4 mi
11:00 AM88 °FScattered clouds.6 mph75%29.86 "Hg4 mi
10:30 AM86 °FScattered clouds.5 mph79%29.86 "Hg4 mi
10:00 AM84 °FScattered clouds.No wind84%29.86 "Hg3 mi
9:30 AM82 °FScattered clouds.2 mph84%29.86 "Hg3 mi
9:00 AM81 °FScattered clouds.No wind94%29.86 "Hg3 mi
8:30 AM79 °FScattered clouds.2 mph94%29.83 "Hg2 mi
8:00 AM79 °FScattered clouds.2 mph94%29.83 "Hg3 mi
7:30 AM79 °FScattered clouds.No wind94%29.80 "Hg4 mi
7:00 AM77 °FScattered clouds.No wind94%29.80 "Hg2 mi
6:30 AM75 °FScattered clouds.No wind100%29.77 "Hg2 mi
6:00 AM77 °FPassing clouds.No wind94%29.77 "Hg3 mi
5:30 AM77 °FPassing clouds.No wind94%29.77 "Hg2 mi
4:00 AM77 °FPassing clouds.No wind94%29.77 "Hg3 mi
3:30 AM77 °FPassing clouds.No wind94%29.77 "Hg3 mi
3:00 AM77 °FPassing clouds.3 mph94%29.77 "Hg3 mi
2:30 AM77 °FPassing clouds.No wind94%29.77 "Hg3 mi
2:00 AM75 °FPassing clouds.7 mph100%29.80 "Hg3 mi
1:30 AM75 °FPassing clouds.No wind100%29.80 "Hg3 mi
1:00 AM75 °FPassing clouds.5 mph100%29.80 "Hg2 mi
12:30 AM75 °FPassing clouds.5 mph100%29.83 "Hg2 mi
12:00 AM77 °FPassing clouds.3 mph94%29.83 "Hg3 mi
11:30 PM
Sat, Apr 18
75 °FPassing clouds.3 mph100%29.83 "Hg3 mi
11:00 PM77 °FPassing clouds.No wind94%29.83 "Hg3 mi
10:30 PM77 °FPassing clouds.No wind94%29.83 "Hg3 mi
10:00 PM77 °FPassing clouds.3 mph94%29.80 "Hg3 mi
9:30 PM77 °FPassing clouds.3 mph94%29.80 "Hg3 mi
9:00 PM77 °FPassing clouds.No wind94%29.77 "Hg3 mi
8:30 PM77 °FPassing clouds.No wind94%29.77 "Hg4 mi
8:00 PM77 °FPassing clouds.3 mph94%29.77 "Hg4 mi
7:30 PM77 °FPassing clouds.No wind94%29.74 "Hg4 mi
7:00 PM77 °FPassing clouds.No wind94%29.74 "Hg4 mi
6:30 PM77 °FPassing clouds.8 mph89%29.74 "Hg4 mi
6:00 PM79 °FScattered clouds.3 mph84%29.74 "Hg5 mi
5:30 PM79 °FPartly sunny.7 mph84%29.74 "HgN/A
5:00 PM82 °FPartly sunny.20 mph70%29.74 "Hg5 mi
Weather by CustomWeather, © 2015

See weather overviewHow to use our weather pages